Weather History for KBIX - January, 2014

Change the Weather History Date:

Friday, January 10, 2014

  Actual Average Record
Temperature  
Mean Temperature 56 °F -  
Max Temperature 63 °F 56 °F 74 °F (1949)
Min Temperature 49 °F 39 °F 16 °F (1962)
Degree Days  
Heating Degree Days 9    
Growing Degree Days 6 (Base 50)    
Moisture  
Dew Point 58 °F    
Average Humidity 99    
Maximum Humidity 100    
Minimum Humidity 87    
Precipitation  
Precipitation 0.04 in - - ()
Sea Level Pressure  
Sea Level Pressure 30.03 in    
Wind  
Wind Speed 7 mph (ESE)    
Max Wind Speed 15 mph    
Max Gust Speed 18 mph    
Visibility 4 miles    
Events Fog , Rain    
Averages and records for this station are not official NWS values.
T = Trace of Precipitation, MM = Missing Value Source: NWS Daily Summary

Daily Weather History Graph

Daily Weather History Graph

Search for Another Location

Airport or City:

Trip Planner

Search our weather history database for the weather conditions in past years. The results will help you decide how hot, cold, wet, or windy it might be!

Date:

Astronomy

Jan. 10, 2014 Rise Set
Actual Time 6:53 AM CST 5:13 PM CST
Civil Twilight 6:27 AM CST 5:39 PM CST
Nautical Twilight 5:57 AM CST 6:09 PM CST
Astronomical Twilight 5:28 AM CST 6:38 PM CST
Moon 1:11 PM CST (1/10) 2:07 AM CST (1/10)
Length of Visible Light 11h 11m
Length of Day
10h 19m
Waxing Gibbous, 75% of the Moon is Illuminated
Jan 10
Waxing Gibbous
Jan 15
Full
Jan 23
Last Quarter
Jan 30
New
Feb 6
First Quarter

Hourly Weather History & Observations

Time (CST) Temp. Dew Point Humidity Pressure Visibility Wind Dir Wind Speed Gust Speed Precip Events Conditions
12:58 AM 49.5 °F 45.9 °F 87% 30.22 in 10.0 mi East 6.9 mph - N/A   Overcast
1:28 AM 50.0 °F 46.4 °F 87% 30.20 in 10.0 mi East 5.8 mph - N/A   Overcast
1:43 AM 50.0 °F 46.4 °F 87% 30.20 in 10.0 mi East 5.8 mph - N/A   Overcast
1:48 AM 50.0 °F 46.4 °F 87% 30.20 in 10.0 mi East 5.8 mph - N/A   Overcast
1:58 AM 49.5 °F 46.9 °F 91% 30.21 in 10.0 mi East 6.9 mph - N/A   Overcast
2:03 AM 50.0 °F 48.2 °F 94% 30.19 in 10.0 mi East 8.1 mph - N/A   Overcast
2:23 AM 50.0 °F 48.2 °F 94% 30.19 in 10.0 mi East 6.9 mph - N/A   Overcast
2:58 AM 50.4 °F 49.3 °F 96% 30.19 in 10.0 mi East 6.9 mph - N/A   Overcast
3:18 AM 50.0 °F 50.0 °F 100% 30.18 in 10.0 mi East 9.2 mph - N/A   Overcast
3:48 AM 50.0 °F 50.0 °F 100% 30.17 in 10.0 mi ENE 9.2 mph - N/A   Overcast
3:58 AM 50.5 °F 50.0 °F 98% 30.18 in 9.0 mi ENE 9.2 mph - N/A   Overcast
4:13 AM 50.0 °F 50.0 °F 100% 30.16 in 7.0 mi ENE 8.1 mph - N/A   Overcast
4:23 AM 50.0 °F 50.0 °F 100% 30.16 in 7.0 mi ENE 6.9 mph - N/A   Overcast
4:28 AM 50.0 °F 50.0 °F 100% 30.16 in 7.0 mi ENE 6.9 mph - N/A   Overcast
4:33 AM 50.0 °F 50.0 °F 100% 30.16 in 8.0 mi ENE 6.9 mph - N/A   Overcast
4:38 AM 50.0 °F 50.0 °F 100% 30.16 in 9.0 mi ENE 8.1 mph - N/A   Overcast
4:43 AM 50.0 °F 50.0 °F 100% 30.15 in 10.0 mi ENE 8.1 mph - N/A   Overcast
4:48 AM 50.0 °F 50.0 °F 100% 30.15 in 10.0 mi ENE 8.1 mph - N/A   Overcast
4:53 AM 50.0 °F 50.0 °F 100% 30.15 in 10.0 mi ENE 10.4 mph - N/A   Overcast
4:58 AM 50.4 °F 50.4 °F 100% 30.16 in 10.0 mi ENE 8.1 mph - N/A   Overcast
5:38 AM 50.0 °F 50.0 °F 100% 30.13 in 10.0 mi ENE 9.2 mph - N/A   Mostly Cloudy
5:48 AM 50.0 °F 50.0 °F 100% 30.13 in 10.0 mi NE 9.2 mph - N/A   Scattered Clouds
5:58 AM 49.1 °F 49.1 °F 100% 30.13 in 10.0 mi NE 8.1 mph - N/A   Partly Cloudy
6:28 AM 50.0 °F 50.0 °F 100% 30.13 in 10.0 mi ENE 3.5 mph - N/A   Mostly Cloudy
6:58 AM 49.1 °F 49.1 °F 100% 30.15 in 8.0 mi ENE 4.6 mph - N/A   Overcast
7:28 AM 50.0 °F 50.0 °F 100% 30.14 in 7.0 mi NE 4.6 mph - N/A   Overcast
7:58 AM 50.2 °F 50.2 °F 100% 30.16 in 9.0 mi NE 4.6 mph - N/A   Scattered Clouds
8:08 AM 51.8 °F 51.8 °F 100% 30.15 in 10.0 mi ENE 4.6 mph - N/A   Mostly Cloudy
8:13 AM 51.8 °F 51.8 °F 100% 30.15 in 10.0 mi ENE 4.6 mph - N/A   Mostly Cloudy
8:58 AM 53.1 °F 52.5 °F 98% 30.17 in 10.0 mi ENE 5.8 mph - N/A   Overcast
9:53 AM 53.6 °F 53.6 °F 100% 30.15 in 10.0 mi ENE 3.5 mph - N/A   Overcast
9:58 AM 54.3 °F 52.9 °F 95% 30.16 in 10.0 mi ENE 4.6 mph - N/A   Overcast
10:58 AM 57.7 °F 55.4 °F 92% 30.12 in 10.0 mi ENE 6.9 mph - N/A   Overcast
11:13 AM 59.0 °F 55.4 °F 88% 30.10 in 10.0 mi ENE 5.8 mph - N/A   Overcast
11:33 AM 59.0 °F 55.4 °F 88% 30.09 in 10.0 mi East 4.6 mph - N/A   Overcast
11:58 AM 59.9 °F 58.3 °F 94% 30.08 in 7.0 mi ESE 5.8 mph - N/A   Overcast
12:02 PM 59.0 °F 59.0 °F 100% 30.07 in 5.0 mi East 4.6 mph - N/A   Light Drizzle
12:07 PM 59.0 °F 59.0 °F 100% 30.06 in 4.0 mi East 3.5 mph - N/A   Light Drizzle
12:13 PM 59.0 °F 59.0 °F 100% 30.05 in 5.0 mi East 2.3 mph - N/A   Overcast
12:38 PM 59.0 °F 59.0 °F 100% 30.03 in 8.0 mi Variable 4.6 mph - N/A   Overcast
12:58 PM 59.9 °F 59.9 °F 100% 30.03 in 9.0 mi East 4.6 mph - 0.00 in   Overcast
1:08 PM 60.8 °F 60.8 °F 100% 30.02 in 6.0 mi East 6.9 mph - N/A   Overcast
1:13 PM 60.8 °F 60.8 °F 100% 30.02 in 4.0 mi ESE 5.8 mph - N/A   Overcast
1:18 PM 60.8 °F 60.8 °F 100% 30.01 in 2.5 mi East 6.9 mph - N/A   Overcast
1:19 PM 60.8 °F 60.8 °F 100% 30.01 in 2.5 mi ESE 6.9 mph - N/A   Light Drizzle
1:24 PM 60.8 °F 60.8 °F 100% 30.01 in 2.0 mi East 6.9 mph - N/A   Light Drizzle
1:27 PM 60.8 °F 60.8 °F 100% 30.00 in 2.0 mi East 6.9 mph - N/A   Overcast
1:32 PM 60.8 °F 60.8 °F 100% 30.00 in 2.5 mi ESE 5.8 mph - N/A   Overcast
1:42 PM 60.8 °F 60.8 °F 100% 30.00 in 3.0 mi ESE 5.8 mph - N/A   Overcast
1:58 PM 60.1 °F 60.1 °F 100% 30.01 in 4.0 mi East 4.6 mph - 0.00 in   Overcast
2:45 PM 60.8 °F 60.8 °F 100% 29.98 in 3.0 mi ESE 6.9 mph - N/A   Light Drizzle
2:54 PM 60.8 °F 60.8 °F 100% 29.98 in 6.0 mi ESE 8.1 mph - N/A   Overcast
2:58 PM 60.4 °F 60.4 °F 100% 29.99 in 6.0 mi ESE 8.1 mph - 0.01 in   Overcast
3:11 PM 60.8 °F 60.8 °F 100% 29.99 in 2.5 mi ESE 9.2 mph - N/A Rain Light Rain
3:16 PM 60.8 °F 60.8 °F 100% 29.98 in 1.8 mi ESE 8.1 mph - N/A Rain Light Rain
3:21 PM 60.8 °F 60.8 °F 100% 29.98 in 2.5 mi ESE 8.1 mph - N/A   Light Drizzle
3:24 PM 60.8 °F 60.8 °F 100% 29.98 in 4.0 mi ESE 6.9 mph - N/A   Overcast
3:49 PM 60.8 °F 60.8 °F 100% 29.97 in 2.5 mi ESE 8.1 mph - N/A   Overcast
3:54 PM 60.8 °F 60.8 °F 100% 29.97 in 2.5 mi ESE 6.9 mph - N/A   Overcast
3:58 PM 60.3 °F 60.3 °F 100% 29.98 in 3.0 mi ESE 9.2 mph - 0.00 in   Overcast
4:03 PM 60.8 °F 60.8 °F 100% 29.97 in 2.5 mi ESE 8.1 mph - N/A   Overcast
4:18 PM 60.8 °F 60.8 °F 100% 29.97 in 2.0 mi ESE 9.2 mph - N/A   Overcast
4:23 PM 60.8 °F 60.8 °F 100% 29.97 in 1.8 mi ESE 9.2 mph - N/A   Overcast
4:28 PM 60.8 °F 60.8 °F 100% 29.97 in 1.5 mi ESE 6.9 mph - N/A   Overcast
4:33 PM 60.8 °F 60.8 °F 100% 29.97 in 1.2 mi ESE 8.1 mph - N/A   Overcast
4:38 PM 60.8 °F 60.8 °F 100% 29.97 in 1.0 mi ESE 8.1 mph - N/A   Mist
4:43 PM 60.8 °F 60.8 °F 100% 29.97 in 1.0 mi ESE 6.9 mph - N/A   Mist
4:48 PM 60.8 °F 60.8 °F 100% 29.97 in 1.0 mi SE 8.1 mph - N/A   Mist
4:53 PM 60.8 °F 60.8 °F 100% 29.97 in 1.2 mi SE 9.2 mph - N/A   Overcast
4:58 PM 61.0 °F 61.0 °F 100% 29.98 in 1.8 mi SE 9.2 mph - N/A   Overcast
5:03 PM 60.8 °F 60.8 °F 100% 29.97 in 2.0 mi SE 9.2 mph - N/A   Overcast
5:08 PM 60.8 °F 60.8 °F 100% 29.97 in 2.5 mi SE 8.1 mph - N/A   Overcast
5:13 PM 60.8 °F 60.8 °F 100% 29.97 in 4.0 mi SE 9.2 mph - N/A   Overcast
5:23 PM 60.8 °F 60.8 °F 100% 29.96 in 2.0 mi SE 9.2 mph - N/A   Overcast
5:28 PM 59.0 °F 59.0 °F 100% 29.96 in 1.8 mi SE 8.1 mph - N/A   Overcast
5:33 PM 59.0 °F 59.0 °F 100% 29.96 in 1.8 mi SE 10.4 mph - N/A   Overcast
5:43 PM 59.0 °F 59.0 °F 100% 29.96 in 1.5 mi SE 11.5 mph - N/A   Overcast
5:53 PM 59.0 °F 59.0 °F 100% 29.96 in 1.8 mi SE 10.4 mph - N/A   Overcast
5:58 PM 60.8 °F 60.8 °F 100% 29.97 in 2.0 mi SE 12.7 mph 18.4 mph N/A   Overcast
6:08 PM 60.8 °F 60.8 °F 100% 29.96 in 1.8 mi SE 11.5 mph - N/A   Overcast
6:13 PM 60.8 °F 60.8 °F 100% 29.97 in 2.0 mi SE 11.5 mph - N/A   Overcast
6:18 PM 60.8 °F 60.8 °F 100% 29.97 in 2.5 mi SE 9.2 mph - N/A   Overcast
6:23 PM 60.8 °F 60.8 °F 100% 29.97 in 3.0 mi SE 12.7 mph - N/A   Overcast
6:28 PM 60.8 °F 60.8 °F 100% 29.97 in 2.5 mi SE 10.4 mph - N/A   Overcast
6:33 PM 60.8 °F 60.8 °F 100% 29.97 in 1.8 mi SE 11.5 mph - N/A   Overcast
6:38 PM 60.8 °F 60.8 °F 100% 29.97 in 1.5 mi SE 9.2 mph - N/A   Overcast
6:43 PM 60.8 °F 60.8 °F 100% 29.97 in 1.2 mi SE 9.2 mph - N/A   Overcast
6:48 PM 60.8 °F 60.8 °F 100% 29.97 in 1.0 mi SE 10.4 mph - N/A   Mist
6:58 PM 61.3 °F 61.3 °F 100% 29.98 in 1.0 mi SE 9.2 mph - 0.01 in   Mist
7:03 PM 60.8 °F 60.8 °F 100% 29.97 in 1.2 mi SE 11.5 mph - N/A   Overcast
7:08 PM 60.8 °F 60.8 °F 100% 29.97 in 1.2 mi SE 10.4 mph - N/A   Overcast
7:13 PM 60.8 °F 60.8 °F 100% 29.97 in 1.0 mi ESE 11.5 mph 18.4 mph N/A   Mist
7:18 PM 60.8 °F 60.8 °F 100% 29.97 in 1.0 mi SE 9.2 mph - N/A   Mist
7:28 PM 60.8 °F 60.8 °F 100% 29.97 in 0.8 mi SE 10.4 mph - N/A   Mist
7:39 PM 60.8 °F 60.8 °F 100% 29.97 in 0.8 mi SE 8.1 mph - N/A Rain Light Rain
7:44 PM 60.8 °F 60.8 °F 100% 29.97 in 0.8 mi SE 5.8 mph - N/A Rain Light Rain
7:51 PM 60.8 °F 60.8 °F 100% 29.97 in 1.0 mi SE 8.1 mph - N/A Rain Light Rain
7:56 PM 60.8 °F 60.8 °F 100% 29.97 in 1.8 mi SE 5.8 mph - N/A Rain Light Rain
7:58 PM 62.6 °F 62.6 °F 100% 29.98 in 2.0 mi SSE 8.1 mph - 0.01 in Rain Light Rain
8:03 PM 62.6 °F 62.6 °F 100% 29.96 in 0.8 mi SSE 8.1 mph - N/A   Light Drizzle
8:12 PM 62.6 °F 62.6 °F 100% 29.96 in - SE 8.1 mph - N/A   Overcast
8:16 PM 60.8 °F 60.8 °F 100% 29.96 in 1.0 mi SE 8.1 mph - N/A Rain Light Rain
8:20 PM 60.8 °F 60.8 °F 100% 29.96 in 1.0 mi SE 6.9 mph - N/A Rain Light Rain
8:25 PM 60.8 °F 60.8 °F 100% 29.96 in 0.5 mi SE 5.8 mph - N/A Rain Light Rain
8:27 PM 60.8 °F 60.8 °F 100% 29.96 in 1.0 mi SE 6.9 mph - N/A   Mist
8:42 PM 62.6 °F 62.6 °F 100% 29.96 in 1.0 mi SSE 10.4 mph - N/A Rain Light Rain
8:54 PM 62.6 °F 62.6 °F 100% 29.95 in 0.8 mi SSE 8.1 mph - N/A   Mist
8:58 PM 63.0 °F 63.0 °F 100% 29.96 in 0.8 mi SSE 8.1 mph - 0.01 in   Mist
9:03 PM 62.6 °F 62.6 °F 100% 29.95 in 0.8 mi SSE 9.2 mph - N/A   Mist
9:23 PM 62.6 °F 62.6 °F 100% 29.95 in 0.8 mi SSE 8.1 mph - N/A   Mist
9:28 PM 62.6 °F 62.6 °F 100% 29.95 in 1.0 mi SSE 6.9 mph - N/A   Mist
9:43 PM 62.6 °F 62.6 °F 100% 29.94 in 0.8 mi SSE 8.1 mph - N/A   Mist
9:53 PM 62.6 °F 62.6 °F 100% 29.94 in 0.8 mi South 8.1 mph - N/A   Mist
9:58 PM 62.6 °F 62.6 °F 100% 29.95 in 0.8 mi South 8.1 mph - N/A   Mist
10:03 PM 62.6 °F 62.6 °F 100% 29.95 in 0.5 mi South 8.1 mph - N/A Fog Fog
10:08 PM 62.6 °F 62.6 °F 100% 29.94 in 0.5 mi South 9.2 mph - N/A Fog Fog
10:58 PM 62.2 °F 62.2 °F 100% 29.94 in 0.5 mi South 12.7 mph - N/A Fog Fog
11:03 PM 62.6 °F 62.6 °F 100% 29.93 in 0.5 mi South 11.5 mph - N/A Fog Fog
11:28 PM 60.8 °F 60.8 °F 100% 29.92 in 0.8 mi South 15.0 mph - N/A   Mist
11:43 PM 60.8 °F 60.8 °F 100% 29.92 in 0.5 mi South 12.7 mph - N/A Fog Fog
11:58 PM 60.4 °F 60.4 °F 100% 29.92 in 0.5 mi South 15.0 mph - N/A Fog Fog